FENGYUN 1C DEB

Satellite information

Favourite Embed

Satellite Type and Status

DEBRISIN ORBIT

Key statistics

Satellite FENGYUN 1C DEB at a glance.

Uptime

9715

Days in orbit

Revolutions

≈ 14.3

Per day

Orbit

SSO

Sun Synchronous Orbit

Inclination

98.6

Latest

Satellite identification and parameters

Extended collection of information and parameters for FENGYUN 1C DEB.

Object identification

Identified? True

Debris? True

Object name: FENGYUN 1C DEB

International designator: 1999-025ASQ

Object number (NORAD): 30730

Object ID (CCSDS): 30730

Country: PEOPLES REPUBLIC OF CHINA (PRC)

Current information (Y/N): Y

RCS size: SMALL

Orbital parameters

Period: 101.02 minutes

Inclination: 98.6188 deg

SMA: 7185.061 km

Apoapsis: 863.299 km

Periapsis: 750.553 km

RAAN: 24.7268 deg

Eccentricy: 0.00784586

Argument of periapsis: 52.6842 deg

Mean anomaly: 99.8256 deg

Mean motion: 14.25466729 rev/day

Mean motion (dot): 0.00003498 rev/day2

B* drag term: 0.0014510887 1/REarth

Two-line elements (TLE)

Creation date: Dec. 11, 2025, 7:14 p.m.

Reference frame: TEME

Reference center: EARTH

Epoch: Dec. 11, 2025, 2:02 p.m. UTC

TLE line 0: 0 FENGYUN 1C DEB

TLE line 1: 1 30730U 99025ASQ 25345.58497462 .00003498 00000-0 14511-2 0 9990

TLE line 2: 2 30730 98.6188 24.7268 0078459 52.6842 99.8256 14.25466729969890

Live tracking on map

Real-time ground track for satellite FENGYUN 1C DEB.

In-orbit conjunctions

A list of the most updated potential collisions computed for object FENGYUN 1C DEB.

Target Orbit TCA Probability of collision Miss distance Type
NOAA 9 SSO 2025-06-13 08:06:16 0.0001013103 513.0 (m) PAYLOAD
SL-16 DEB LEO 2024-11-11 16:10:40 0.0003061345 247.0 (m) DEBRIS

Associated space launch

Chinese polar orbiting meteorological satellite

FENGYUN 1C DEB was lifted into orbit during the mission ‘Long March 4B | Feng Yun 1C’, on board a Long March 4B space rocket.

The launch took place on May 10, 1999, 1:33 a.m. from Launch Complex 7.

For more information about the launch, click the button.

Launch to space Long March 4B | Feng Yun 1C
Long March 4B | Feng Yun 1C

Agency: N/A

Status: Launch Successful

Launch date: May 10, 1999, 1:33 a.m. UTC

Rocket: Long March 4B

Launch pad: Launch Complex 7

Location: Taiyuan Satellite Launch Center, People's Republic of China

...

Latest news about this satellite

There are no fresh news available about this satellite. Check back as we update our databases every day.


Newsletter sign-up

Weekly statistics, charts and insights to help you stay on top of the space industry.